This is the latest recevied weather packets stored in our database for station/object KI5RAB. If no packets are shown the sender has not sent any weather packets the latest 10 day(s).
| Time | Temp. | Humidity | Pressure | Rain* | Wind** | Luminosity | Snow |
|---|---|---|---|---|---|---|---|
| 1778120317 | 18.89° C | 80% | 1016.1 hPa | 0 mm | - | 0 W/m² | - |
| 1778120013 | 18.89° C | 80% | 1016.1 hPa | 0 mm | - | 0 W/m² | - |
| 1778119711 | 18.89° C | 80% | 1016.1 hPa | 0 mm | - | 0 W/m² | - |
| 1778119408 | 18.89° C | 80% | 1015.9 hPa | 0 mm | - | 0 W/m² | - |
| 1778119105 | 18.89° C | 80% | 1015.9 hPa | 0 mm | - | 0 W/m² | - |
| 1778118803 | 18.89° C | 80% | 1015.7 hPa | 0 mm | - | 0 W/m² | - |
| 1778118500 | 18.89° C | 80% | 1015 hPa | 0 mm | - | 0 W/m² | - |
| 1778118196 | 19.44° C | 79% | 1014.8 hPa | 0 mm | - | 0 W/m² | - |
| 1778117892 | 19.44° C | 79% | 1015.1 hPa | 0 mm | - | 0 W/m² | - |
| 1778117590 | 19.44° C | 79% | 1015.5 hPa | 0 mm | - | 0 W/m² | - |
| 1778117287 | 19.44° C | 79% | 1015.2 hPa | 0 mm | - | 0 W/m² | - |
| 1778116983 | 19.44° C | 79% | 1015.1 hPa | 0 mm | - | 0 W/m² | - |
| 1778116680 | 19.44° C | 79% | 1015.1 hPa | 0 mm | - | 1 W/m² | - |
| 1778116377 | 19.44° C | 79% | 1015.1 hPa | 0 mm | - | 1 W/m² | - |
| 1778116076 | 20° C | 79% | 1015 hPa | 0 mm | - | 1 W/m² | - |
| 1778115772 | 20° C | 79% | 1014.9 hPa | 0 mm | - | 3 W/m² | - |
| 1778115470 | 20° C | 78% | 1014.9 hPa | 0 mm | - | 5 W/m² | - |
| 1778115166 | 20° C | 78% | 1014.8 hPa | 0 mm | - | 8 W/m² | - |
| 1778114862 | 20° C | 78% | 1014.3 hPa | 0 mm | - | 10 W/m² | - |
| 1778114561 | 20.56° C | 77% | 1014.6 hPa | 0 mm | - | 12 W/m² | - |
| 1778114256 | 20.56° C | 77% | 1014.4 hPa | 0 mm | - | 11 W/m² | - |
| 1778113952 | 21.11° C | 76% | 1014.5 hPa | 0 mm | - | 13 W/m² | - |
| 1778113648 | 21.11° C | 76% | 1014.5 hPa | 0 mm | - | 21 W/m² | - |
| 1778113344 | 21.11° C | 76% | 1014.3 hPa | 0 mm | - | 30 W/m² | - |
| 1778113041 | 21.11° C | 76% | 1014.5 hPa | 0 mm | - | 36 W/m² | - |
* Rain latest hour (hover to see other rain measurements)
** Current wind speed in m/s (hover to see current wind gust speed)